This is the latest recevied weather packets stored in our database for station/object SP2FH-13. If no packets are shown the sender has not sent any weather packets the latest 10 day(s).
| Time | Temp. | Humidity | Pressure | Rain* | Wind** | Luminosity | Snow |
|---|---|---|---|---|---|---|---|
| 1778439575 | 13.89° C | 56% | 1000.4 hPa | - | - | - | - |
| 1778439274 | 13.89° C | 57% | 1000.4 hPa | - | - | - | - |
| 1778438973 | 13.89° C | 60% | 1000.4 hPa | - | - | - | - |
| 1778438672 | 14.44° C | 55% | 1000.3 hPa | - | - | - | - |
| 1778438371 | 14.44° C | 55% | 1000.3 hPa | - | - | 1 W/m² | - |
| 1778438070 | 14.44° C | 54% | 1000.3 hPa | - | - | 1 W/m² | - |
| 1778437769 | 14.44° C | 58% | 1000.3 hPa | - | - | 2 W/m² | - |
| 1778437469 | 15.56° C | 54% | 1000.2 hPa | - | - | 3 W/m² | - |
| 1778437167 | 15.56° C | 53% | 1000.2 hPa | - | - | 4 W/m² | - |
| 1778436866 | 15.56° C | 54% | 1000.2 hPa | - | - | 6 W/m² | - |
| 1778436565 | 15° C | 55% | 1000.2 hPa | - | - | 8 W/m² | - |
| 1778436265 | 15.56° C | 54% | 1000.3 hPa | - | - | 11 W/m² | - |
| 1778435964 | 16.11° C | 53% | 1000.2 hPa | - | - | 14 W/m² | - |
| 1778435663 | 16.67° C | 50% | 1000.2 hPa | - | - | 17 W/m² | - |
| 1778435361 | 16.67° C | 50% | 1000.2 hPa | - | - | 20 W/m² | - |
| 1778435061 | 17.22° C | 51% | 1000.3 hPa | - | - | 23 W/m² | - |
| 1778434759 | 17.22° C | 49% | 1000.3 hPa | - | - | 24 W/m² | - |
| 1778434459 | 17.22° C | 46% | 1000.4 hPa | - | - | 27 W/m² | - |
| 1778434157 | 17.22° C | 47% | 1000.4 hPa | - | - | 30 W/m² | - |
| 1778433855 | 17.78° C | 47% | 1000.4 hPa | - | - | 30 W/m² | - |
| 1778433554 | 17.78° C | 43% | 1000.4 hPa | - | - | 33 W/m² | - |
| 1778433253 | 17.78° C | 42% | 1000.5 hPa | - | - | 35 W/m² | - |
| 1778432952 | 17.78° C | 41% | 1000.4 hPa | - | - | 38 W/m² | - |
| 1778432651 | 18.33° C | 42% | 1000.5 hPa | - | - | 44 W/m² | - |
| 1778432350 | 18.33° C | 37% | 1000.5 hPa | - | - | 48 W/m² | - |
* Rain since midnight (hover to see other rain measurements)
** Current wind speed in m/s (hover to see current wind gust speed)